Location: Bletchingley
(51.2333°N, 0.1000°W)
Time: 02:02:54
(UTC+00:00)

Cosmos 1844 Rocket - Pass Details

Date: 18 September 2020
Orbit: 823 x 846 km, 71.0° (Epoch: 30 October)

Event Time Altitude Azimuth Distance (km) Brightness Sun altitude
Rises 19:38:47 0° 182° (S) 3,346 5.6 -14.8°
Reaches altitude 10° 19:41:20 10° 174° (S) 2,419 4.8 -15.2°
Maximum altitude 19:46:24 38° 108° (ESE) 1,244 3.1 -15.9°
Drops below altitude 10° 19:51:31 10° 42° (NE) 2,444 4.9 -16.7°
Sets 19:54:07 0° 35° (NE) 3,385 5.7 -17.0°
